Time,TemperatureF,DewpointF,PressureIn,WindDirection,WindDirectionDegrees,WindSpeedMPH,WindSpeedGustMPH,Humidity,HourlyPrecipIn,Conditions,Clouds,dailyrainin,SoftwareType,DateUTC
2013-05-22 00:01:00,53.4,45.0,30.03,West,280,5.8,5.8,73,0.00,CLR,,0.00,WeatherDisplay:10.37,2013-05-21 23:01:00,
2013-05-22 00:07:00,53.3,45.2,30.03,WSW,238,8.1,8.1,74,0.00,CLR,,0.00,WeatherDisplay:10.37,2013-05-21 23:07:00,
2013-05-22 00:12:00,53.1,45.0,30.03,West,269,9.2,9.2,74,0.00,CLR,,0.00,WeatherDisplay:10.37,2013-05-21 23:12:00,
2013-05-22 00:17:00,52.9,44.8,30.03,West,273,11.5,11.5,74,0.00,CLR,,0.00,WeatherDisplay:10.37,2013-05-21 23:17:00,
2013-05-22 00:22:00,52.6,44.5,30.03,West,280,6.9,6.9,74,0.00,CLR,,0.00,WeatherDisplay:10.37,2013-05-21 23:22:00,
2013-05-22 00:27:00,52.3,44.3,30.03,WSW,240,10.4,10.4,74,0.00,CLR,,0.00,WeatherDisplay:10.37,2013-05-21 23:27:00,
2013-05-22 00:32:00,52.0,44.3,30.03,West,278,6.0,6.0,75,0.00,CLR,,0.00,WeatherDisplay:10.37,2013-05-21 23:32:00,
2013-05-22 00:37:00,51.8,44.1,30.03,West,277,4.6,5.0,75,0.00,CLR,,0.00,WeatherDisplay:10.37,2013-05-21 23:37:00,
2013-05-22 00:42:00,51.6,44.3,30.03,WSW,255,9.0,9.0,76,0.00,CLR,,0.00,WeatherDisplay:10.37,2013-05-21 23:42:00,
2013-05-22 00:47:00,51.4,44.1,30.03,WSW,249,5.8,5.8,76,0.00,CLR,,0.00,WeatherDisplay:10.37,2013-05-21 23:47:00,
2013-05-22 00:52:00,51.3,44.0,30.03,West,259,10.4,10.4,76,0.00,CLR,,0.00,WeatherDisplay:10.37,2013-05-21 23:52:00,
2013-05-22 00:57:00,51.2,43.9,30.03,West,262,6.9,6.9,76,0.00,CLR,,0.00,WeatherDisplay:10.37,2013-05-21 23:57:00,
2013-05-22 01:02:00,51.2,43.9,30.03,West,271,9.2,9.2,76,0.00,CLR,,0.00,WeatherDisplay:10.37,2013-05-22 00:02:00,
2013-05-22 01:07:00,51.1,44.1,30.03,West,270,4.6,4.6,77,0.00,CLR,,0.00,WeatherDisplay:10.37,2013-05-22 00:07:00,
2013-05-22 01:12:00,51.0,44.0,30.03,West,276,9.2,9.2,77,0.00,CLR,,0.00,WeatherDisplay:10.37,2013-05-22 00:12:00,
2013-05-22 01:17:00,51.0,44.0,30.03,West,273,4.6,4.6,77,0.00,CLR,,0.00,WeatherDisplay:10.37,2013-05-22 00:17:00,
2013-05-22 01:22:00,51.0,44.0,30.03,West,271,9.2,9.2,77,0.00,CLR,,0.00,WeatherDisplay:10.37,2013-05-22 00:22:00,
2013-05-22 01:27:00,50.9,44.3,30.03,West,273,6.9,6.9,78,0.00,CLR,,0.00,WeatherDisplay:10.37,2013-05-22 00:27:00,
2013-05-22 01:32:00,50.8,44.2,30.03,West,262,6.9,6.9,78,0.00,CLR,,0.00,WeatherDisplay:10.37,2013-05-22 00:32:00,
2013-05-22 01:37:00,50.8,44.2,30.03,West,265,4.6,4.6,78,0.00,CLR,,0.00,WeatherDisplay:10.37,2013-05-22 00:37:00,
2013-05-22 01:42:00,50.7,44.1,30.03,WSW,256,6.0,6.0,78,0.00,CLR,,0.00,WeatherDisplay:10.37,2013-05-22 00:42:00,
2013-05-22 01:47:00,50.6,44.0,30.03,West,273,10.0,10.0,78,0.00,CLR,,0.00,WeatherDisplay:10.37,2013-05-22 00:47:00,
2013-05-22 01:52:00,50.5,44.2,30.03,West,264,12.0,12.0,79,0.00,CLR,,0.00,WeatherDisplay:10.37,2013-05-22 00:52:00,
2013-05-22 01:57:00,50.4,44.1,30.03,West,260,8.1,8.1,79,0.00,CLR,,0.00,WeatherDisplay:10.37,2013-05-22 00:57:00,
2013-05-22 02:02:00,50.4,44.1,30.03,West,265,10.4,10.4,79,0.00,CLR,,0.00,WeatherDisplay:10.37,2013-05-22 01:02:00,
2013-05-22 02:07:00,50.4,44.1,30.03,West,273,5.0,5.0,79,0.00,CLR,,0.00,WeatherDisplay:10.37,2013-05-22 01:07:00,
2013-05-22 02:12:00,50.3,44.0,30.03,WSW,252,4.6,4.6,79,0.00,CLR,,0.00,WeatherDisplay:10.37,2013-05-22 01:12:00,
2013-05-22 02:17:00,50.3,44.0,30.03,West,262,9.2,9.2,79,0.00,CLR,,0.00,WeatherDisplay:10.37,2013-05-22 01:17:00,
2013-05-22 02:22:00,50.2,43.9,30.03,West,269,9.2,9.2,79,0.00,CLR,,0.00,WeatherDisplay:10.37,2013-05-22 01:22:00,
2013-05-22 02:27:00,50.1,43.8,30.03,WSW,255,6.9,6.9,79,0.00,CLR,,0.00,WeatherDisplay:10.37,2013-05-22 01:27:00,
2013-05-22 02:32:00,50.0,43.7,30.03,West,265,11.5,11.5,79,0.00,CLR,,0.00,WeatherDisplay:10.37,2013-05-22 01:32:00,
2013-05-22 02:37:00,50.0,43.7,30.03,West,280,6.9,6.9,79,0.00,CLR,,0.00,WeatherDisplay:10.37,2013-05-22 01:37:00,
2013-05-22 02:42:00,49.9,43.6,30.03,West,270,9.2,9.2,79,0.00,CLR,,0.00,WeatherDisplay:10.37,2013-05-22 01:42:00,
2013-05-22 02:47:00,49.9,43.6,30.03,WSW,254,10.4,10.4,79,0.00,CLR,,0.00,WeatherDisplay:10.37,2013-05-22 01:47:00,
2013-05-22 02:52:00,49.8,43.5,30.03,WSW,256,3.5,3.5,79,0.00,CLR,,0.00,WeatherDisplay:10.37,2013-05-22 01:52:00,
2013-05-22 02:57:00,49.8,43.5,30.03,West,272,10.4,10.4,79,0.00,CLR,,0.00,WeatherDisplay:10.37,2013-05-22 01:57:00,
2013-05-22 03:02:00,49.8,43.5,30.03,West,279,9.2,9.2,79,0.00,CLR,,0.00,WeatherDisplay:10.37,2013-05-22 02:02:00,
2013-05-22 03:07:00,49.7,43.5,30.03,West,264,5.0,5.0,79,0.00,CLR,,0.00,WeatherDisplay:10.37,2013-05-22 02:07:00,
2013-05-22 03:12:00,49.7,43.5,30.03,WSW,238,5.8,5.8,79,0.00,CLR,,0.00,WeatherDisplay:10.37,2013-05-22 02:12:00,
2013-05-22 03:17:00,49.6,43.4,30.03,West,263,5.8,5.8,79,0.00,CLR,,0.00,WeatherDisplay:10.37,2013-05-22 02:17:00,
2013-05-22 03:22:00,49.4,43.2,30.03,WSW,258,8.1,8.1,79,0.00,CLR,,0.00,WeatherDisplay:10.37,2013-05-22 02:22:00,
2013-05-22 03:27:00,49.2,43.0,30.03,SW,225,5.8,5.8,79,0.00,CLR,,0.00,WeatherDisplay:10.37,2013-05-22 02:27:00,
2013-05-22 03:32:00,48.9,42.7,30.03,West,267,6.9,6.9,79,0.00,CLR,,0.00,WeatherDisplay:10.37,2013-05-22 02:32:00,
2013-05-22 03:37:00,48.7,42.8,30.03,West,260,6.9,6.9,80,0.00,CLR,,0.00,WeatherDisplay:10.37,2013-05-22 02:37:00,
2013-05-22 03:42:00,48.5,42.6,30.03,SW,232,9.2,9.2,80,0.00,CLR,,0.00,WeatherDisplay:10.37,2013-05-22 02:42:00,
2013-05-22 03:47:00,48.3,42.4,30.03,WSW,248,6.9,6.9,80,0.00,CLR,,0.00,WeatherDisplay:10.37,2013-05-22 02:47:00,
2013-05-22 03:52:00,48.1,42.5,30.03,West,277,10.4,10.4,81,0.00,CLR,,0.00,WeatherDisplay:10.37,2013-05-22 02:52:00,
2013-05-22 03:57:00,48.0,42.4,30.03,West,259,5.8,5.8,81,0.00,CLR,,0.00,WeatherDisplay:10.37,2013-05-22 02:57:00,
2013-05-22 04:02:00,47.8,41.9,30.03,WSW,247,3.5,3.5,80,0.00,CLR,,0.00,WeatherDisplay:10.37,2013-05-22 03:02:00,
2013-05-22 04:07:00,47.8,42.3,30.03,West,275,5.0,5.0,81,0.00,CLR,,0.00,WeatherDisplay:10.37,2013-05-22 03:07:00,
2013-05-22 04:12:00,47.7,42.2,30.03,West,276,5.8,5.8,81,0.00,CLR,,0.00,WeatherDisplay:10.37,2013-05-22 03:12:00,
2013-05-22 04:17:00,47.7,42.2,30.02,West,270,8.1,8.1,81,0.00,CLR,,0.00,WeatherDisplay:10.37,2013-05-22 03:17:00,
2013-05-22 04:22:00,47.7,42.2,30.02,West,264,6.9,6.9,81,0.00,CLR,,0.00,WeatherDisplay:10.37,2013-05-22 03:22:00,
2013-05-22 04:27:00,47.6,42.1,30.02,West,269,10.4,10.4,81,0.00,CLR,,0.00,WeatherDisplay:10.37,2013-05-22 03:27:00,
2013-05-22 04:32:00,47.6,42.4,30.02,SSW,199,11.5,11.5,82,0.00,CLR,,0.00,WeatherDisplay:10.37,2013-05-22 03:32:00,
2013-05-22 04:37:00,47.7,42.2,30.02,West,261,9.2,9.2,81,0.00,CLR,,0.00,WeatherDisplay:10.37,2013-05-22 03:37:00,
2013-05-22 04:42:00,47.8,42.3,30.02,West,277,11.5,11.5,81,0.00,CLR,,0.00,WeatherDisplay:10.37,2013-05-22 03:42:00,
2013-05-22 04:47:00,47.8,42.3,30.02,West,261,10.4,10.4,81,0.00,CLR,,0.00,WeatherDisplay:10.37,2013-05-22 03:47:00,
2013-05-22 04:52:00,47.7,42.5,30.02,SW,233,6.9,6.9,82,0.00,CLR,,0.00,WeatherDisplay:10.37,2013-05-22 03:52:00,
2013-05-22 04:57:00,47.7,42.5,30.02,WSW,251,5.8,5.8,82,0.00,CLR,,0.00,WeatherDisplay:10.37,2013-05-22 03:57:00,
2013-05-22 05:01:00,47.6,42.7,30.02,WSW,239,6.9,6.9,83,0.00,CLR,,0.00,WeatherDisplay:10.37,2013-05-22 04:01:00,
2013-05-22 05:02:00,47.6,42.4,30.02,West,275,6.0,6.0,82,0.00,CLR,,0.00,WeatherDisplay:10.37,2013-05-22 04:02:00,
2013-05-22 05:03:00,47.7,42.8,30.02,WSW,257,8.1,8.1,83,0.00,CLR,,0.00,WeatherDisplay:10.37,2013-05-22 04:03:00,
2013-05-22 05:08:00,47.7,42.8,30.02,WSW,255,6.9,6.9,83,0.00,CLR,,0.00,WeatherDisplay:10.37,2013-05-22 04:08:00,
2013-05-22 05:13:00,47.8,42.6,30.02,West,263,10.4,10.4,82,0.00,CLR,,0.00,WeatherDisplay:10.37,2013-05-22 04:13:00,
2013-05-22 05:18:00,47.9,42.7,30.02,SW,221,9.2,9.2,82,0.00,CLR,,0.00,WeatherDisplay:10.37,2013-05-22 04:18:00,
2013-05-22 05:23:00,48.1,42.9,30.02,WSW,244,4.6,4.6,82,0.00,CLR,,0.00,WeatherDisplay:10.37,2013-05-22 04:23:00,
2013-05-22 05:28:00,48.1,42.9,30.02,West,276,5.0,5.0,82,0.00,CLR,,0.00,WeatherDisplay:10.37,2013-05-22 04:28:00,
2013-05-22 05:33:00,48.1,42.9,30.02,West,275,4.6,4.6,82,0.00,CLR,,0.00,WeatherDisplay:10.37,2013-05-22 04:33:00,
2013-05-22 05:38:00,48.0,42.8,30.02,West,263,4.6,4.6,82,0.00,CLR,,0.00,WeatherDisplay:10.37,2013-05-22 04:38:00,
2013-05-22 05:43:00,47.9,42.7,30.02,West,261,6.9,6.9,82,0.00,CLR,,0.00,WeatherDisplay:10.37,2013-05-22 04:43:00,
2013-05-22 05:48:00,47.9,42.7,30.02,West,268,4.6,4.6,82,0.00,CLR,,0.00,WeatherDisplay:10.37,2013-05-22 04:48:00,
2013-05-22 05:53:00,47.9,43.0,30.02,West,275,11.5,11.5,83,0.00,CLR,,0.00,WeatherDisplay:10.37,2013-05-22 04:53:00,
2013-05-22 05:58:00,47.9,42.7,30.02,WSW,242,10.4,10.4,82,0.00,CLR,,0.00,WeatherDisplay:10.37,2013-05-22 04:58:00,
2013-05-22 06:03:00,48.0,42.8,30.02,West,259,4.6,4.6,82,0.00,CLR,,0.00,WeatherDisplay:10.37,2013-05-22 05:03:00,
2013-05-22 06:08:00,48.1,42.9,30.02,WNW,286,5.0,5.0,82,0.00,CLR,,0.00,WeatherDisplay:10.37,2013-05-22 05:08:00,
2013-05-22 06:13:00,48.2,43.0,30.02,WNW,283,4.6,4.6,82,0.00,CLR,,0.00,WeatherDisplay:10.37,2013-05-22 05:13:00,
2013-05-22 06:18:00,48.3,43.1,30.02,West,266,8.1,8.1,82,0.00,CLR,,0.00,WeatherDisplay:10.37,2013-05-22 05:18:00,
2013-05-22 06:23:00,48.5,42.9,30.02,WNW,286,6.0,6.0,81,0.00,CLR,,0.00,WeatherDisplay:10.37,2013-05-22 05:23:00,
2013-05-22 06:28:00,48.6,43.0,30.02,West,269,11.5,11.5,81,0.00,CLR,,0.00,WeatherDisplay:10.37,2013-05-22 05:28:00,
2013-05-22 06:33:00,48.9,43.3,30.02,West,263,10.0,10.0,81,0.00,CLR,,0.00,WeatherDisplay:10.37,2013-05-22 05:33:00,
2013-05-22 06:38:00,49.2,43.3,30.02,West,275,13.0,13.0,80,0.00,CLR,,0.00,WeatherDisplay:10.37,2013-05-22 05:38:00,
2013-05-22 06:43:00,49.5,43.9,30.02,WNW,283,11.5,11.5,81,0.00,CLR,,0.00,WeatherDisplay:10.37,2013-05-22 05:43:00,
2013-05-22 06:48:00,49.9,43.6,30.02,West,269,11.5,11.5,79,0.00,CLR,,0.00,WeatherDisplay:10.37,2013-05-22 05:48:00,
2013-05-22 06:53:00,50.4,43.5,30.02,West,276,16.1,16.1,77,0.00,CLR,,0.00,WeatherDisplay:10.37,2013-05-22 05:53:00,
2013-05-22 06:58:00,50.8,43.8,30.02,WNW,288,11.5,11.5,77,0.00,CLR,,0.00,WeatherDisplay:10.37,2013-05-22 05:58:00,
2013-05-22 07:03:00,51.2,43.9,30.02,WNW,291,13.8,13.8,76,0.00,CLR,,0.00,WeatherDisplay:10.37,2013-05-22 06:03:00,
2013-05-22 07:08:00,51.3,44.0,30.02,West,271,10.4,10.4,76,0.00,CLR,,0.00,WeatherDisplay:10.37,2013-05-22 06:08:00,
2013-05-22 07:13:00,51.5,44.2,30.02,West,271,11.5,11.5,76,0.00,CLR,,0.00,WeatherDisplay:10.37,2013-05-22 06:13:00,
2013-05-22 07:18:00,51.5,44.2,30.03,SW,217,11.5,11.5,76,0.00,CLR,,0.00,WeatherDisplay:10.37,2013-05-22 06:18:00,
2013-05-22 07:23:00,51.4,44.4,30.03,West,272,15.0,15.0,77,0.00,CLR,,0.00,WeatherDisplay:10.37,2013-05-22 06:23:00,
2013-05-22 07:28:00,51.1,43.8,30.03,NW,324,9.2,9.2,76,0.00,CLR,,0.00,WeatherDisplay:10.37,2013-05-22 06:28:00,
2013-05-22 07:33:00,50.8,43.8,30.03,WNW,290,13.8,13.8,77,0.00,CLR,,0.00,WeatherDisplay:10.37,2013-05-22 06:33:00,
2013-05-22 07:38:00,50.6,44.0,30.03,WNW,292,10.4,10.4,78,0.00,CLR,,0.00,WeatherDisplay:10.37,2013-05-22 06:38:00,
2013-05-22 07:43:00,50.6,43.3,30.03,WNW,292,13.0,13.0,76,0.00,CLR,,0.00,WeatherDisplay:10.37,2013-05-22 06:43:00,
2013-05-22 07:48:00,50.6,43.3,30.03,NW,321,4.6,4.6,76,0.00,CLR,,0.00,WeatherDisplay:10.37,2013-05-22 06:48:00,
2013-05-22 07:53:00,50.7,43.4,30.03,NW,313,9.2,9.2,76,0.00,CLR,,0.00,WeatherDisplay:10.37,2013-05-22 06:53:00,
2013-05-22 07:58:00,50.8,43.2,30.03,WNW,294,5.8,5.8,75,0.00,CLR,,0.00,WeatherDisplay:10.37,2013-05-22 06:58:00,
2013-05-22 08:03:00,50.9,43.3,30.03,NW,309,6.0,6.0,75,0.00,CLR,,0.00,WeatherDisplay:10.37,2013-05-22 07:03:00,
2013-05-22 08:08:00,50.9,42.9,30.03,NW,321,10.4,10.4,74,0.00,CLR,,0.00,WeatherDisplay:10.37,2013-05-22 07:08:00,
2013-05-22 08:13:00,51.0,43.4,30.03,NW,310,9.2,9.2,75,0.00,CLR,,0.00,WeatherDisplay:10.37,2013-05-22 07:13:00,
2013-05-22 08:18:00,51.4,43.4,30.03,NW,326,6.0,6.0,74,0.00,CLR,,0.00,WeatherDisplay:10.37,2013-05-22 07:18:00,
2013-05-22 08:23:00,52.0,42.9,30.03,NW,319,12.7,12.7,71,0.00,CLR,,0.00,WeatherDisplay:10.37,2013-05-22 07:23:00,
2013-05-22 08:28:00,52.5,43.4,30.03,NW,323,5.8,5.8,71,0.00,CLR,,0.00,WeatherDisplay:10.37,2013-05-22 07:28:00,
2013-05-22 08:33:00,53.0,43.5,30.03,NW,321,6.9,6.9,70,0.00,CLR,,0.00,WeatherDisplay:10.37,2013-05-22 07:33:00,
2013-05-22 08:38:00,53.4,42.7,30.03,WSW,248,11.5,11.5,67,0.00,CLR,,0.00,WeatherDisplay:10.37,2013-05-22 07:38:00,
2013-05-22 08:43:00,52.9,41.4,30.03,WNW,285,13.0,13.0,65,0.00,CLR,,0.00,WeatherDisplay:10.37,2013-05-22 07:43:00,
2013-05-22 08:48:00,52.3,40.9,30.03,West,261,13.8,13.8,65,0.00,CLR,,0.00,WeatherDisplay:10.37,2013-05-22 07:48:00,
2013-05-22 08:53:00,52.0,41.0,30.03,West,266,10.4,10.4,66,0.00,CLR,,0.00,WeatherDisplay:10.37,2013-05-22 07:53:00,
2013-05-22 08:58:00,51.9,41.3,30.03,WSW,243,7.0,7.0,67,0.00,CLR,,0.00,WeatherDisplay:10.37,2013-05-22 07:58:00,
2013-05-22 09:03:00,52.4,41.4,30.03,WNW,291,11.5,11.5,66,0.00,CLR,,0.00,WeatherDisplay:10.37,2013-05-22 08:03:00,
2013-05-22 09:08:00,52.6,40.4,30.03,West,271,12.7,12.7,63,0.00,CLR,,0.00,WeatherDisplay:10.37,2013-05-22 08:08:00,
2013-05-22 09:13:00,52.2,39.6,30.03,NW,306,12.7,12.7,62,0.00,CLR,,0.00,WeatherDisplay:10.37,2013-05-22 08:13:00,
2013-05-22 09:18:00,52.5,40.7,30.03,West,265,11.5,11.5,64,0.00,CLR,,0.00,WeatherDisplay:10.37,2013-05-22 08:18:00,
2013-05-22 09:23:00,53.0,41.1,30.03,WNW,296,11.5,11.5,64,0.00,CLR,,0.00,WeatherDisplay:10.37,2013-05-22 08:23:00,
2013-05-22 09:28:00,53.3,40.2,30.03,WNW,288,10.4,10.4,61,0.00,CLR,,0.00,WeatherDisplay:10.37,2013-05-22 08:28:00,
2013-05-22 09:33:00,53.6,41.3,30.03,WNW,292,9.2,9.2,63,0.00,CLR,,0.00,WeatherDisplay:10.37,2013-05-22 08:33:00,
2013-05-22 09:38:00,53.6,40.5,30.03,NW,316,9.2,9.2,61,0.00,CLR,,0.00,WeatherDisplay:10.37,2013-05-22 08:38:00,
2013-05-22 09:43:00,53.9,39.5,30.03,NNW,338,9.0,9.0,58,0.00,CLR,,0.00,WeatherDisplay:10.37,2013-05-22 08:43:00,
2013-05-22 09:48:00,54.1,38.7,30.03,SW,230,12.7,12.7,56,0.00,CLR,,0.00,WeatherDisplay:10.37,2013-05-22 08:48:00,
2013-05-22 09:53:00,54.3,38.5,30.03,NW,304,15.0,15.0,55,0.00,CLR,,0.00,WeatherDisplay:10.37,2013-05-22 08:53:00,
2013-05-22 09:58:00,54.4,38.6,30.03,WNW,300,11.5,11.5,55,0.00,CLR,,0.00,WeatherDisplay:10.37,2013-05-22 08:58:00,
2013-05-22 10:03:00,54.4,39.0,30.03,WNW,284,5.8,5.8,56,0.00,CLR,,0.00,WeatherDisplay:10.37,2013-05-22 09:03:00,
2013-05-22 10:08:00,54.4,38.6,30.03,WNW,288,12.7,12.7,55,0.00,CLR,,0.00,WeatherDisplay:10.37,2013-05-22 09:08:00,
2013-05-22 10:13:00,53.9,38.1,30.03,WNW,293,12.7,12.7,55,0.00,CLR,,0.00,WeatherDisplay:10.37,2013-05-22 09:13:00,
2013-05-22 10:18:00,53.5,37.7,30.03,West,280,10.4,10.4,55,0.00,CLR,,0.00,WeatherDisplay:10.37,2013-05-22 09:18:00,
2013-05-22 10:23:00,53.7,37.0,30.03,NNW,345,11.5,11.5,53,0.00,CLR,,0.00,WeatherDisplay:10.37,2013-05-22 09:23:00,
2013-05-22 10:28:00,54.2,37.9,30.03,NW,313,14.0,14.0,54,0.00,CLR,,0.00,WeatherDisplay:10.37,2013-05-22 09:28:00,
2013-05-22 10:33:00,54.3,36.5,30.02,WSW,258,11.5,11.5,51,0.00,CLR,,0.00,WeatherDisplay:10.37,2013-05-22 09:33:00,
2013-05-22 10:38:00,53.9,36.2,30.02,SW,215,6.9,6.9,51,0.00,CLR,,0.00,WeatherDisplay:10.37,2013-05-22 09:38:00,
2013-05-22 10:43:00,53.7,35.0,30.02,West,271,10.4,10.4,49,0.00,CLR,,0.00,WeatherDisplay:10.37,2013-05-22 09:43:00,
2013-05-22 10:48:00,53.6,35.4,30.02,WNW,294,19.6,19.6,50,0.00,CLR,,0.00,WeatherDisplay:10.37,2013-05-22 09:48:00,
2013-05-22 10:53:00,54.1,36.4,30.02,West,262,11.5,11.5,51,0.00,CLR,,0.00,WeatherDisplay:10.37,2013-05-22 09:53:00,
2013-05-22 10:58:00,55.0,36.7,30.02,West,265,13.8,13.8,50,0.00,CLR,,0.00,WeatherDisplay:10.37,2013-05-22 09:58:00,
2013-05-22 11:03:00,55.6,36.7,30.02,NW,320,9.2,9.2,49,0.00,CLR,,0.00,WeatherDisplay:10.37,2013-05-22 10:03:00,
2013-05-22 11:08:00,56.3,37.4,30.02,West,273,10.0,10.0,49,0.00,CLR,,0.00,WeatherDisplay:10.37,2013-05-22 10:08:00,
2013-05-22 11:13:00,56.6,35.5,30.02,WNW,282,19.6,19.6,45,0.00,CLR,,0.00,WeatherDisplay:10.37,2013-05-22 10:13:00,
2013-05-22 11:18:00,56.4,36.4,30.02,WSW,257,6.9,6.9,47,0.00,CLR,,0.00,WeatherDisplay:10.37,2013-05-22 10:18:00,
2013-05-22 11:23:00,56.6,35.5,30.02,NW,304,12.7,12.7,45,0.00,CLR,,0.00,WeatherDisplay:10.37,2013-05-22 10:23:00,
2013-05-22 11:28:00,56.9,35.2,30.02,NW,306,12.7,12.7,44,0.00,CLR,,0.00,WeatherDisplay:10.37,2013-05-22 10:28:00,
2013-05-22 11:33:00,57.1,35.9,30.02,NW,304,14.0,14.0,45,0.00,CLR,,0.00,WeatherDisplay:10.37,2013-05-22 10:33:00,
2013-05-22 11:38:00,57.2,34.9,30.02,West,276,17.3,17.3,43,0.00,CLR,,0.00,WeatherDisplay:10.37,2013-05-22 10:38:00,
2013-05-22 11:43:00,57.1,35.4,30.02,NNW,343,12.7,12.7,44,0.00,CLR,,0.00,WeatherDisplay:10.37,2013-05-22 10:43:00,
2013-05-22 11:48:00,57.0,34.7,30.02,WNW,293,13.8,13.8,43,0.00,CLR,,0.00,WeatherDisplay:10.37,2013-05-22 10:48:00,
2013-05-22 11:53:00,57.1,33.6,30.02,NW,313,19.6,19.6,41,0.00,CLR,,0.00,WeatherDisplay:10.37,2013-05-22 10:53:00,
2013-05-22 11:58:00,57.6,34.1,30.02,WNW,295,15.0,15.0,41,0.00,CLR,,0.00,WeatherDisplay:10.37,2013-05-22 10:58:00,
2013-05-22 12:03:00,57.7,34.7,30.02,SW,221,23.0,23.0,42,0.00,CLR,,0.00,WeatherDisplay:10.37,2013-05-22 11:03:00,
2013-05-22 12:08:00,57.5,34.6,30.02,WNW,284,14.0,14.0,42,0.00,CLR,,0.00,WeatherDisplay:10.37,2013-05-22 11:08:00,
2013-05-22 12:13:00,57.2,33.7,30.02,NW,306,16.1,16.1,41,0.00,CLR,,0.00,WeatherDisplay:10.37,2013-05-22 11:13:00,
2013-05-22 12:18:00,57.3,34.4,30.00,WNW,290,19.6,19.6,42,0.00,CLR,,0.00,WeatherDisplay:10.37,2013-05-22 11:18:00,
2013-05-22 12:23:00,57.2,34.9,30.00,NW,306,13.8,13.8,43,0.00,CLR,,0.00,WeatherDisplay:10.37,2013-05-22 11:23:00,
2013-05-22 12:28:00,57.7,35.3,30.00,WSW,250,18.4,18.4,43,0.00,CLR,,0.00,WeatherDisplay:10.37,2013-05-22 11:28:00,
2013-05-22 12:33:00,58.0,34.4,30.01,WNW,293,17.3,17.3,41,0.00,CLR,,0.00,WeatherDisplay:10.37,2013-05-22 11:33:00,
2013-05-22 12:38:00,58.0,35.0,30.01,NW,306,12.0,12.0,42,0.00,CLR,,0.00,WeatherDisplay:10.37,2013-05-22 11:38:00,
2013-05-22 12:43:00,57.5,32.7,30.01,WNW,289,19.6,19.6,39,0.00,CLR,,0.00,WeatherDisplay:10.37,2013-05-22 11:43:00,
2013-05-22 12:48:00,57.6,34.1,30.00,WNW,301,17.3,17.3,41,0.00,CLR,,0.00,WeatherDisplay:10.37,2013-05-22 11:48:00,
2013-05-22 12:53:00,58.0,32.5,30.00,WNW,288,19.6,19.6,38,0.00,CLR,,0.00,WeatherDisplay:10.37,2013-05-22 11:53:00,
2013-05-22 12:58:00,58.3,31.4,30.00,WNW,290,21.9,21.9,36,0.00,CLR,,0.00,WeatherDisplay:10.37,2013-05-22 11:58:00,
2013-05-22 13:03:00,58.3,32.1,30.00,West,274,23.0,23.0,37,0.00,CLR,,0.00,WeatherDisplay:10.37,2013-05-22 12:03:00,
2013-05-22 13:08:00,58.5,32.3,30.00,NW,306,19.6,19.6,37,0.00,CLR,,0.00,WeatherDisplay:10.37,2013-05-22 12:08:00,
2013-05-22 13:13:00,58.3,32.8,30.00,West,273,19.6,19.6,38,0.00,CLR,,0.00,WeatherDisplay:10.37,2013-05-22 12:13:00,
2013-05-22 13:18:00,58.1,34.5,30.00,West,273,15.0,15.0,41,0.00,CLR,,0.00,WeatherDisplay:10.37,2013-05-22 12:18:00,
2013-05-22 13:23:00,58.1,33.2,30.00,West,260,16.1,16.1,39,0.00,CLR,,0.00,WeatherDisplay:10.37,2013-05-22 12:23:00,
2013-05-22 13:28:00,58.0,33.2,30.00,WNW,292,17.3,17.3,39,0.00,CLR,,0.00,WeatherDisplay:10.37,2013-05-22 12:28:00,
2013-05-22 13:33:00,58.1,33.9,30.00,WNW,299,19.6,19.6,40,0.00,CLR,,0.00,WeatherDisplay:10.37,2013-05-22 12:33:00,
2013-05-22 13:38:00,58.1,33.2,30.00,WNW,297,16.1,16.1,39,0.00,CLR,,0.00,WeatherDisplay:10.37,2013-05-22 12:38:00,
2013-05-22 13:43:00,57.5,34.0,30.00,SW,219,15.0,15.0,41,0.00,CLR,,0.00,WeatherDisplay:10.37,2013-05-22 12:43:00,
2013-05-22 13:48:00,57.6,34.1,29.99,WNW,297,15.0,15.0,41,0.00,CLR,,0.00,WeatherDisplay:10.37,2013-05-22 12:48:00,
2013-05-22 13:53:00,58.3,32.8,29.99,WNW,296,20.7,20.7,38,0.00,CLR,,0.00,WeatherDisplay:10.37,2013-05-22 12:53:00,
2013-05-22 13:58:00,58.5,34.2,29.99,WSW,257,20.7,20.7,40,0.00,CLR,,0.00,WeatherDisplay:10.37,2013-05-22 12:58:00,
2013-05-22 14:03:00,58.7,32.5,29.99,West,275,24.2,24.2,37,0.00,CLR,,0.00,WeatherDisplay:10.37,2013-05-22 13:03:00,
2013-05-22 14:08:00,58.9,32.7,29.99,West,266,20.7,20.7,37,0.00,CLR,,0.00,WeatherDisplay:10.37,2013-05-22 13:08:00,
2013-05-22 14:13:00,59.1,33.5,29.99,West,265,25.3,25.3,38,0.00,CLR,,0.00,WeatherDisplay:10.37,2013-05-22 13:13:00,
2013-05-22 14:18:00,58.9,32.0,29.99,NNW,329,23.0,23.0,36,0.00,CLR,,0.00,WeatherDisplay:10.37,2013-05-22 13:18:00,
2013-05-22 14:23:00,58.8,33.2,29.99,WNW,286,21.0,21.0,38,0.00,CLR,,0.00,WeatherDisplay:10.37,2013-05-22 13:23:00,
2013-05-22 14:28:00,58.8,30.5,29.99,WNW,298,28.8,28.8,34,0.00,CLR,,0.00,WeatherDisplay:10.37,2013-05-22 13:28:00,
2013-05-22 14:33:00,58.9,32.7,29.99,West,277,18.4,18.4,37,0.00,CLR,,0.00,WeatherDisplay:10.37,2013-05-22 13:33:00,
2013-05-22 14:38:00,59.4,31.0,29.99,WNW,300,19.6,19.6,34,0.00,CLR,,0.00,WeatherDisplay:10.37,2013-05-22 13:38:00,
2013-05-22 14:43:00,59.1,30.7,29.99,NW,314,21.9,21.9,34,0.00,CLR,,0.00,WeatherDisplay:10.37,2013-05-22 13:43:00,
2013-05-22 14:48:00,58.7,31.1,29.99,NW,316,24.2,24.2,35,0.00,CLR,,0.00,WeatherDisplay:10.37,2013-05-22 13:48:00,
2013-05-22 14:53:00,58.9,31.3,29.99,WNW,302,24.2,24.2,35,0.00,CLR,,0.00,WeatherDisplay:10.37,2013-05-22 13:53:00,
2013-05-22 14:58:00,59.3,33.0,29.99,NNW,327,15.0,15.0,37,0.00,CLR,,0.00,WeatherDisplay:10.37,2013-05-22 13:58:00,
2013-05-22 15:03:00,59.1,33.5,29.99,West,281,13.8,13.8,38,0.00,CLR,,0.00,WeatherDisplay:10.37,2013-05-22 14:03:00,
2013-05-22 15:08:00,59.3,34.3,29.99,WNW,296,12.7,12.7,39,0.00,CLR,,0.00,WeatherDisplay:10.37,2013-05-22 14:08:00,
2013-05-22 15:13:00,59.5,33.9,29.99,WNW,283,23.0,23.0,38,0.00,CLR,,0.00,WeatherDisplay:10.37,2013-05-22 14:13:00,
2013-05-22 15:18:00,59.2,34.9,29.99,WNW,296,13.8,13.8,40,0.00,CLR,,0.00,WeatherDisplay:10.37,2013-05-22 14:18:00,
2013-05-22 15:23:00,59.3,33.7,29.99,West,277,20.7,20.7,38,0.00,CLR,,0.00,WeatherDisplay:10.37,2013-05-22 14:23:00,
2013-05-22 15:28:00,59.1,31.4,29.99,WNW,300,29.9,29.9,35,0.00,CLR,,0.00,WeatherDisplay:10.37,2013-05-22 14:28:00,
2013-05-22 15:33:00,58.9,32.0,29.98,WNW,294,26.5,26.5,36,0.00,CLR,,0.00,WeatherDisplay:10.37,2013-05-22 14:33:00,
2013-05-22 15:38:00,58.8,33.9,29.98,West,277,19.6,19.6,39,0.00,CLR,,0.00,WeatherDisplay:10.37,2013-05-22 14:38:00,
2013-05-22 15:43:00,58.9,35.2,29.98,WNW,284,17.3,17.3,41,0.00,CLR,,0.00,WeatherDisplay:10.37,2013-05-22 14:43:00,
2013-05-22 15:48:00,59.1,34.8,29.98,NW,309,23.0,23.0,40,0.00,CLR,,0.00,WeatherDisplay:10.37,2013-05-22 14:48:00,
2013-05-22 15:53:00,58.9,34.0,29.98,West,281,21.9,21.9,39,0.00,CLR,,0.00,WeatherDisplay:10.37,2013-05-22 14:53:00,
2013-05-22 15:58:00,58.1,33.2,29.98,NW,317,25.3,25.3,39,0.00,CLR,,0.00,WeatherDisplay:10.37,2013-05-22 14:58:00,
2013-05-22 16:03:00,57.3,33.8,29.98,WNW,287,24.2,24.2,41,0.00,CLR,,0.00,WeatherDisplay:10.37,2013-05-22 15:03:00,
2013-05-22 16:08:00,56.7,35.6,29.98,West,281,20.0,20.0,45,0.00,CLR,,0.00,WeatherDisplay:10.37,2013-05-22 15:08:00,
2013-05-22 16:13:00,56.4,36.9,29.98,West,269,21.9,21.9,48,0.00,CLR,,0.00,WeatherDisplay:10.37,2013-05-22 15:13:00,
2013-05-22 16:18:00,56.1,38.2,29.99,NW,323,20.7,20.7,51,0.00,CLR,,0.00,WeatherDisplay:10.37,2013-05-22 15:18:00,
2013-05-22 16:23:00,56.4,37.5,29.99,WNW,300,19.6,19.6,49,0.00,CLR,,0.00,WeatherDisplay:10.37,2013-05-22 15:23:00,
2013-05-22 16:28:00,56.8,35.7,29.99,WNW,298,21.9,21.9,45,0.00,CLR,,0.00,WeatherDisplay:10.37,2013-05-22 15:28:00,
2013-05-22 16:33:00,56.6,35.5,29.99,WNW,291,25.3,25.3,45,0.00,CLR,,0.00,WeatherDisplay:10.37,2013-05-22 15:33:00,
2013-05-22 16:38:00,56.8,34.5,29.99,WNW,298,23.0,23.0,43,0.00,CLR,,0.00,WeatherDisplay:10.37,2013-05-22 15:38:00,
2013-05-22 16:43:00,57.1,34.2,29.99,WNW,285,23.0,23.0,42,0.00,CLR,,0.00,WeatherDisplay:10.37,2013-05-22 15:43:00,
2013-05-22 16:48:00,57.4,36.2,29.98,NW,316,17.3,17.3,45,0.00,CLR,,0.00,WeatherDisplay:10.37,2013-05-22 15:48:00,
2013-05-22 16:53:00,57.5,37.9,29.98,West,274,18.4,18.4,48,0.00,CLR,,0.00,WeatherDisplay:10.37,2013-05-22 15:53:00,
2013-05-22 16:58:00,57.0,37.0,29.98,NW,322,19.6,19.6,47,0.00,CLR,,0.00,WeatherDisplay:10.37,2013-05-22 15:58:00,
2013-05-22 17:03:00,57.1,38.1,29.97,WNW,294,12.7,12.7,49,0.00,CLR,,0.00,WeatherDisplay:10.37,2013-05-22 16:03:00,
2013-05-22 17:08:00,57.1,37.6,29.97,WNW,295,15.0,15.0,48,0.00,CLR,,0.00,WeatherDisplay:10.37,2013-05-22 16:08:00,
2013-05-22 17:13:00,57.2,37.7,29.97,NW,324,15.0,15.0,48,0.00,CLR,,0.00,WeatherDisplay:10.37,2013-05-22 16:13:00,
2013-05-22 17:18:00,56.7,37.2,29.97,WNW,295,17.3,17.3,48,0.00,CLR,,0.00,WeatherDisplay:10.37,2013-05-22 16:18:00,
2013-05-22 17:23:00,55.8,37.4,29.97,NW,315,16.1,16.1,50,0.00,CLR,,0.00,WeatherDisplay:10.37,2013-05-22 16:23:00,
2013-05-22 17:28:00,55.5,38.1,29.97,NNW,346,13.0,13.0,52,0.00,CLR,,0.00,WeatherDisplay:10.37,2013-05-22 16:28:00,
2013-05-22 17:33:00,55.8,38.4,29.97,NW,317,11.5,11.5,52,0.00,CLR,,0.00,WeatherDisplay:10.37,2013-05-22 16:33:00,
2013-05-22 17:38:00,56.4,38.5,29.97,WNW,292,14.0,14.0,51,0.00,CLR,,0.00,WeatherDisplay:10.37,2013-05-22 16:38:00,
2013-05-22 17:43:00,56.4,38.0,29.97,NW,310,16.1,16.1,50,0.00,CLR,,0.00,WeatherDisplay:10.37,2013-05-22 16:43:00,
2013-05-22 17:48:00,56.2,37.8,29.97,NNW,333,18.4,18.4,50,0.00,CLR,,0.00,WeatherDisplay:10.37,2013-05-22 16:48:00,
2013-05-22 17:53:00,56.0,37.1,29.97,WNW,292,20.7,20.7,49,0.00,CLR,,0.00,WeatherDisplay:10.37,2013-05-22 16:53:00,
2013-05-22 17:58:00,55.5,35.6,29.97,WNW,292,26.5,26.5,47,0.00,CLR,,0.00,WeatherDisplay:10.37,2013-05-22 16:58:00,
2013-05-22 18:03:00,55.1,35.2,29.97,West,278,21.9,21.9,47,0.00,CLR,,0.00,WeatherDisplay:10.37,2013-05-22 17:03:00,
2013-05-22 18:08:00,54.6,34.8,29.97,WNW,285,25.3,25.3,47,0.00,CLR,,0.00,WeatherDisplay:10.37,2013-05-22 17:08:00,
2013-05-22 18:13:00,54.1,34.8,29.97,West,266,20.7,20.7,48,0.00,CLR,,0.00,WeatherDisplay:10.37,2013-05-22 17:13:00,
2013-05-22 18:18:00,53.9,34.6,29.96,West,275,24.2,24.2,48,0.00,CLR,,0.00,WeatherDisplay:10.37,2013-05-22 17:18:00,
2013-05-22 18:23:00,54.1,35.9,29.96,NW,308,23.0,23.0,50,0.00,CLR,,0.00,WeatherDisplay:10.37,2013-05-22 17:23:00,
2013-05-22 18:28:00,54.2,35.9,29.96,West,277,19.6,19.6,50,0.00,CLR,,0.00,WeatherDisplay:10.37,2013-05-22 17:28:00,
2013-05-22 18:33:00,54.1,35.9,29.96,WNW,303,15.0,15.0,50,0.00,CLR,,0.00,WeatherDisplay:10.37,2013-05-22 17:33:00,
2013-05-22 18:38:00,54.1,35.9,29.96,NW,311,23.0,23.0,50,0.00,CLR,,0.00,WeatherDisplay:10.37,2013-05-22 17:38:00,
2013-05-22 18:43:00,53.7,36.0,29.96,WNW,293,23.0,23.0,51,0.00,CLR,,0.00,WeatherDisplay:10.37,2013-05-22 17:43:00,
2013-05-22 18:48:00,53.5,36.3,29.96,West,259,19.6,19.6,52,0.00,CLR,,0.00,WeatherDisplay:10.37,2013-05-22 17:48:00,
2013-05-22 18:53:00,52.8,36.1,29.96,West,275,19.6,19.6,53,0.00,CLR,,0.00,WeatherDisplay:10.37,2013-05-22 17:53:00,
2013-05-22 18:58:00,52.5,36.8,29.96,West,277,18.4,18.4,55,0.00,CLR,,0.00,WeatherDisplay:10.37,2013-05-22 17:58:00,
2013-05-22 19:03:00,52.3,37.1,29.96,West,279,21.9,21.9,56,0.00,CLR,,0.00,WeatherDisplay:10.37,2013-05-22 18:03:00,
2013-05-22 19:08:00,51.7,38.7,29.96,WNW,298,23.0,23.0,61,0.00,CLR,,0.00,WeatherDisplay:10.37,2013-05-22 18:08:00,
2013-05-22 19:13:00,51.1,38.5,29.96,West,277,20.7,20.7,62,0.00,CLR,,0.00,WeatherDisplay:10.37,2013-05-22 18:13:00,
2013-05-22 19:18:00,50.9,38.7,29.96,WNW,303,15.0,15.0,63,0.00,CLR,,0.00,WeatherDisplay:10.37,2013-05-22 18:18:00,
2013-05-22 19:23:00,51.0,38.4,29.96,NNW,327,11.5,11.5,62,0.00,CLR,,0.00,WeatherDisplay:10.37,2013-05-22 18:23:00,
2013-05-22 19:28:00,51.0,38.4,29.96,WNW,282,13.0,13.0,62,0.00,CLR,,0.00,WeatherDisplay:10.37,2013-05-22 18:28:00,
2013-05-22 19:33:00,51.0,38.0,29.97,NW,312,19.6,19.6,61,0.00,CLR,,0.00,WeatherDisplay:10.37,2013-05-22 18:33:00,
2013-05-22 19:38:00,50.8,37.0,29.97,NNW,343,21.9,21.9,59,0.00,CLR,,0.00,WeatherDisplay:10.37,2013-05-22 18:38:00,
2013-05-22 19:43:00,50.2,37.7,29.97,WNW,302,13.8,13.8,62,0.00,CLR,,0.00,WeatherDisplay:10.37,2013-05-22 18:43:00,
2013-05-22 19:48:00,49.4,37.7,29.98,North,355,12.0,12.0,64,0.00,CLR,,0.00,WeatherDisplay:10.37,2013-05-22 18:48:00,
2013-05-22 19:53:00,48.9,38.0,29.98,NNE,30,3.5,3.5,66,0.00,CLR,,0.00,WeatherDisplay:10.37,2013-05-22 18:53:00,
2013-05-22 19:58:00,48.7,37.8,29.98,NW,309,6.0,6.0,66,0.00,CLR,,0.00,WeatherDisplay:10.37,2013-05-22 18:58:00,
2013-05-22 20:03:00,48.3,37.1,29.97,WNW,303,9.2,9.2,65,0.00,CLR,,0.00,WeatherDisplay:10.37,2013-05-22 19:03:00,
2013-05-22 20:08:00,47.9,37.1,29.97,WNW,298,8.1,8.1,66,0.00,CLR,,0.00,WeatherDisplay:10.37,2013-05-22 19:08:00,
2013-05-22 20:13:00,47.6,36.8,29.97,WNW,301,10.4,10.4,66,0.00,CLR,,0.00,WeatherDisplay:10.37,2013-05-22 19:13:00,
2013-05-22 20:18:00,47.5,37.5,29.98,WNW,292,11.5,11.5,68,0.00,CLR,,0.00,WeatherDisplay:10.37,2013-05-22 19:18:00,
2013-05-22 20:23:00,47.5,37.5,29.98,NW,325,6.9,6.9,68,0.00,CLR,,0.00,WeatherDisplay:10.37,2013-05-22 19:23:00,
2013-05-22 20:28:00,47.8,37.4,29.98,WNW,292,11.5,11.5,67,0.00,CLR,,0.00,WeatherDisplay:10.37,2013-05-22 19:28:00,
2013-05-22 20:33:00,48.1,37.7,29.97,West,279,9.2,9.2,67,0.00,CLR,,0.00,WeatherDisplay:10.37,2013-05-22 19:33:00,
2013-05-22 20:38:00,48.4,37.2,29.97,NW,323,13.8,13.8,65,0.00,CLR,,0.00,WeatherDisplay:10.37,2013-05-22 19:38:00,
2013-05-22 20:43:00,48.5,36.5,29.97,WNW,296,10.4,10.4,63,0.00,CLR,,0.00,WeatherDisplay:10.37,2013-05-22 19:43:00,
2013-05-22 20:48:00,48.3,35.9,29.97,WNW,287,15.0,15.0,62,0.00,CLR,,0.00,WeatherDisplay:10.37,2013-05-22 19:48:00,
2013-05-22 20:53:00,47.9,36.3,29.97,NW,310,10.4,10.4,64,0.00,CLR,,0.00,WeatherDisplay:10.37,2013-05-22 19:53:00,
2013-05-22 20:58:00,47.8,36.6,29.97,WNW,287,10.0,10.0,65,0.00,CLR,,0.00,WeatherDisplay:10.37,2013-05-22 19:58:00,
2013-05-22 21:03:00,47.7,36.1,29.98,WNW,295,9.0,9.0,64,0.00,CLR,,0.00,WeatherDisplay:10.37,2013-05-22 20:03:00,
2013-05-22 21:08:00,47.4,36.2,29.98,WNW,296,11.5,11.5,65,0.00,CLR,,0.00,WeatherDisplay:10.37,2013-05-22 20:08:00,
2013-05-22 21:13:00,47.2,36.0,29.98,WNW,297,10.4,10.4,65,0.00,CLR,,0.00,WeatherDisplay:10.37,2013-05-22 20:13:00,
2013-05-22 21:18:00,47.0,36.2,29.97,WNW,288,10.4,10.4,66,0.00,CLR,,0.00,WeatherDisplay:10.37,2013-05-22 20:18:00,
2013-05-22 21:23:00,46.9,36.1,29.97,West,269,9.2,9.2,66,0.00,CLR,,0.00,WeatherDisplay:10.37,2013-05-22 20:23:00,
2013-05-22 21:28:00,46.7,35.9,29.97,WNW,284,4.6,4.6,66,0.00,CLR,,0.00,WeatherDisplay:10.37,2013-05-22 20:28:00,
2013-05-22 21:33:00,46.6,36.2,29.97,West,276,6.9,6.9,67,0.00,CLR,,0.00,WeatherDisplay:10.37,2013-05-22 20:33:00,
2013-05-22 21:38:00,46.5,36.1,29.97,West,274,4.0,4.0,67,0.00,CLR,,0.00,WeatherDisplay:10.37,2013-05-22 20:38:00,
2013-05-22 21:43:00,46.3,36.3,29.97,West,275,5.8,5.8,68,0.00,CLR,,0.00,WeatherDisplay:10.37,2013-05-22 20:43:00,
2013-05-22 21:48:00,46.1,36.1,29.97,West,277,8.0,8.0,68,0.00,CLR,,0.00,WeatherDisplay:10.37,2013-05-22 20:48:00,
2013-05-22 21:53:00,45.9,35.9,29.97,West,267,5.8,5.8,68,0.00,CLR,,0.00,WeatherDisplay:10.37,2013-05-22 20:53:00,
2013-05-22 21:58:00,45.8,36.2,29.97,WSW,250,5.8,5.8,69,0.00,CLR,,0.00,WeatherDisplay:10.37,2013-05-22 20:58:00,
2013-05-22 22:03:00,45.6,36.4,29.97,West,273,9.2,9.2,70,0.00,CLR,,0.00,WeatherDisplay:10.37,2013-05-22 21:03:00,
2013-05-22 22:08:00,45.4,36.5,29.97,West,277,5.8,5.8,71,0.00,CLR,,0.00,WeatherDisplay:10.37,2013-05-22 21:08:00,
2013-05-22 22:13:00,45.3,36.4,29.97,West,265,6.9,6.9,71,0.00,CLR,,0.00,WeatherDisplay:10.37,2013-05-22 21:13:00,
2013-05-22 22:18:00,45.2,36.0,29.97,WNW,288,9.2,9.2,70,0.00,CLR,,0.00,WeatherDisplay:10.37,2013-05-22 21:18:00,
2013-05-22 22:23:00,45.2,36.4,29.97,West,261,6.0,6.0,71,0.00,CLR,,0.00,WeatherDisplay:10.37,2013-05-22 21:23:00,
2013-05-22 22:28:00,45.1,36.3,29.97,West,273,10.4,10.4,71,0.00,CLR,,0.00,WeatherDisplay:10.37,2013-05-22 21:28:00,
2013-05-22 22:33:00,45.1,36.3,29.97,WNW,289,9.2,9.2,71,0.00,CLR,,0.00,WeatherDisplay:10.37,2013-05-22 21:33:00,
2013-05-22 22:38:00,45.1,36.3,29.97,WNW,294,4.6,4.6,71,0.00,CLR,,0.00,WeatherDisplay:10.37,2013-05-22 21:38:00,
2013-05-22 22:43:00,45.0,36.2,29.97,West,279,6.0,6.0,71,0.00,CLR,,0.00,WeatherDisplay:10.37,2013-05-22 21:43:00,
2013-05-22 22:48:00,44.9,36.4,29.98,West,277,4.6,4.6,72,0.00,CLR,,0.00,WeatherDisplay:10.37,2013-05-22 21:48:00,
2013-05-22 22:53:00,44.8,36.3,29.98,West,278,2.3,2.3,72,0.00,CLR,,0.00,WeatherDisplay:10.37,2013-05-22 21:53:00,
2013-05-22 22:58:00,44.6,36.5,29.98,West,276,3.5,3.5,73,0.00,CLR,,0.00,WeatherDisplay:10.37,2013-05-22 21:58:00,
2013-05-22 23:03:00,44.4,36.6,29.97,West,277,3.5,3.5,74,0.00,CLR,,0.00,WeatherDisplay:10.37,2013-05-22 22:03:00,
2013-05-22 23:08:00,44.2,36.4,29.97,West,265,6.9,6.9,74,0.00,CLR,,0.00,WeatherDisplay:10.37,2013-05-22 22:08:00,
2013-05-22 23:13:00,44.2,36.8,29.97,West,267,6.9,6.9,75,0.00,CLR,,0.00,WeatherDisplay:10.37,2013-05-22 22:13:00,
2013-05-22 23:18:00,44.1,36.7,29.97,West,261,7.0,7.0,75,0.00,CLR,,0.00,WeatherDisplay:10.37,2013-05-22 22:18:00,
2013-05-22 23:23:00,44.2,36.8,29.97,West,262,5.8,5.8,75,0.00,CLR,,0.00,WeatherDisplay:10.37,2013-05-22 22:23:00,
2013-05-22 23:28:00,44.2,36.8,29.97,WSW,253,6.9,6.9,75,0.00,CLR,,0.00,WeatherDisplay:10.37,2013-05-22 22:28:00,
2013-05-22 23:33:00,44.2,36.8,29.97,West,275,6.9,6.9,75,0.00,CLR,,0.00,WeatherDisplay:10.37,2013-05-22 22:33:00,
2013-05-22 23:38:00,44.1,36.7,29.97,West,273,10.4,10.4,75,0.00,CLR,,0.00,WeatherDisplay:10.37,2013-05-22 22:38:00,
2013-05-22 23:43:00,44.0,36.2,29.97,West,274,11.5,11.5,74,0.00,CLR,,0.00,WeatherDisplay:10.37,2013-05-22 22:43:00,
2013-05-22 23:48:00,43.9,36.5,29.97,West,273,8.1,8.1,75,0.00,CLR,,0.00,WeatherDisplay:10.37,2013-05-22 22:48:00,
2013-05-22 23:53:00,43.7,36.3,29.97,West,272,6.9,6.9,75,0.00,CLR,,0.00,WeatherDisplay:10.37,2013-05-22 22:53:00,
2013-05-22 23:58:00,43.6,36.5,29.97,West,269,10.4,10.4,76,0.00,CLR,,0.00,WeatherDisplay:10.37,2013-05-22 22:58:00,